Voltar ao catálogo

DELTA 4 R/B

AtivoMEO
NORAD 32288·ROCKET BODY·🇺🇸 United States

Lançado Nov 11, 2007 de Cape Canaveral Space Force Station

Loading…

Próximas Passagens (próximas 24 horas)

TLE

AtualizadoSource: Space-Track

Época: Sep 13, 2026, 07:36 UTC

1 32288U 07054B   26256.31668859 -.00000197  00000-0  00000+0 0  9993
2 32288  11.7118  50.7253 0245318 143.4596 218.3350  0.95871030 26082

Acompanhe DELTA 4 R/B em tempo real com AllMySat

Download on the App Store